Showing default

COSMOS 2255, 22690

Orbit data source: Space-Track

COSMOS 2255, 22690 is a payload satellite owned by VKS (CIS) in LEO that was launched on Thu, 24 Jun 1993 UTC via a TSIKLON-3 launch vehicle from the Plesetsk Missile And Space Complex (PKMTR). Payload-class satellites include a variety of spacecraft equipped with specific instruments for various scientific and technological missions. These include communications satellites like Starlink; space stations such as the ISS; scientific satellites like the Hubble; Earth observation satellites from companies like Planet Labs, Umbra, and HawkEye 360; GPS; miniature CubeSats for education and research; and military/defense satellites.

Loading next visibility...
Identifier
22690, 1993-038D
Orbit
LEO
Country
Flag of CISCIS
Related business
Manufacturer
NPO PM
Mission
Defense Communications
Bus & Motor
STRELA-3, Unknown motor
Mass
225 kg wet, 225 kg dry
Launch date (UTC)
1993-06-24 (32 years ago)
Launch vehicle
TSIKLON-3
Launch site
Plesetsk Missile And Space Complex (PKMTR)
Object type
Payload
Rocket body
Debris
Shape & HBR
Cyl, 0.8 m
Radar Cross Section
1.257 m², Medium (>0.1 m² and < 1m²)

Expand to show TLE details & history
Last TLE update: 9 hours ago

TLE from 9 hours ago
0 COSMOS 2255
1 22690U 93038D   25303.33323164  .00000015  00000-0  22427-4 0  9997
2 22690  82.5892  16.4557 0006794 139.1039 289.8529 12.63321630492202
Epoch: 2025-10-30T07:59Z
TLE epoch observation values (Epoch: 2025-10-30T07:59:51.213Z)
Latitude
67.75251°
Longitude
-123.9558°
Altitude
1,419.169 km
Speed
7.158 km/s
True Right ascension
02h 19m 36s
True Declination
67° 38' 31"
Sunlit
Object was in full shadow at epoch
Visualization orbit readout
Latitude
Unknown
Longitude
Unknown
Altitude
Unknown
Speed
Unknown
Apparent Right ascension
Unknown
Apparent Declination
Unknown
Sunlit
N/A
Visualization observer readout
Local Sidereal Time
12:41:46
Azimuth
Unknown
Elevation
Unknown
Doppler factor
Unknown
Orbital elements
Apogee altitude
1,411.872 km
Perigee altitude
1,401.294 km
Semi-major axis
7,784.72 km
Eccentricity
0.00068
Inclination
82.5892°
RAAN
16.4557°
Arg. of periapsis
139.1039°
True anomaly
289.77965°
Mean anomaly
289.8529°
Eccentric anomaly
289.81628°
Mean motion
3.15994 °/min
Orbital period
113.93 mins
BSTAR
0.000022427
Loading maneuver chart data...
Computing Atmospheric mass density...
Loading historical data...
Loading historical data...
Loading historical data...
Loading historical data...
Loading historical data...
Loading historical data...
Loading historical data...

Documentation

Showing up to 5 results
|